Regional Weather Roundup
Issued by NWS

Home | Current Version | Previous Version | Graphics & Text | Print | Product List | Glossary Off
Versions: 1 2 3 4 5 6 7 8 9 10 11 12 13 14 15 16 17 18 19 20 21 22 23 24 25 26 27 28 29 30 31 32 33 34 35 36 37 38 39 40 41 42 43 44 45 46 47 48 49 50

000
ASUS43 KOAX 272210
RWRNE

WEATHER ROUNDUP FOR NEBRASKA
NATIONAL WEATHER SERVICE OMAHA NE
500 PM CDT WED MAY 27 2015

NOTES: SATELLITE DATA IS BEING USED TO AUGMENT CLOUD COVER ABOVE
       12000 FEET.
       "FAIR" INDICATES FEW OR NO CLOUDS BELOW 12,000 FEET WITH NO
       SIGNIFICANT WEATHER AND/OR OBSTRUCTIONS TO VISIBILITY.

  * THESE STATIONS DO NOT REPORT WEATHER SUCH AS RAIN...SNOW OR FOG.

NEZ001>004-019>022-054>056-272300-
NEBRASKA PANHANDLE

CITY           SKY/WX    TMP DP  RH WIND       PRES   REMARKS
SCOTTSBLUFF    CLOUDY    67  54  63 SE9       29.96F
ALLIANCE       CLOUDY    62  54  74 SW6       29.97F
CHADRON        CLOUDY    60  54  80 NW12      29.99R
KIMBALL          N/A    N/A N/A N/A MISG        N/A
SIDNEY         CLOUDY    67  51  56 E12       30.03R
$$

NEZ057>060-069>072-079>082-272300-
SOUTHWEST NEBRASKA

CITY           SKY/WX    TMP DP  RH WIND       PRES   REMARKS
NORTH PLATTE   MOSUNNY   73  56  54 SE14      30.00F
IMPERIAL       CLOUDY    68  57  68 SE22G29   29.97F
LEXINGTON      CLOUDY    73  58  60 SE16      30.03F
MCCOOK         MOSUNNY   74  55  51 SE14      30.01F
OGALLALA       PTSUNNY   71  58  63 SE14      29.98F
$$

NEZ005>010-023>029-035>040-094-272300-
NORTH CENTRAL NEBRASKA

CITY           SKY/WX    TMP DP  RH WIND       PRES   REMARKS
VALENTINE      PTSUNNY   76  50  40 S21G28    29.98F
AINSWORTH      MOSUNNY   77  51  39 S18       30.00F
BROKEN BOW     PTSUNNY   70  55  59 S18       30.04S
O`NEILL        CLOUDY    79  47  32 S13       30.03F
ORD            PTSUNNY   77  47  34 S15       30.02F
THEDFORD       CLOUDY    74  55  50 S18G24    30.01F
$$

NEZ041-046>049-061>064-073>077-083>087-272300-
SOUTH CENTRAL NEBRASKA

CITY           SKY/WX    TMP DP  RH WIND       PRES   REMARKS
GRAND ISLAND   PTSUNNY   77  44  30 S8        30.05F
AURORA         PTSUNNY   80  42  26 SE7G18    30.03F
HASTINGS       CLOUDY    79  52  38 SW8       30.04F
HEBRON         MOSUNNY   82  44  25 SE14      30.04F
HOLDREGE       CLOUDY    76  53  44 SE16      30.02F
KEARNEY *      CLOUDY    70  59  68 SE10      30.05F
YORK           PTSUNNY   81  43  26 SE8       30.04F
$$

NEZ011>018-030>034-042>045-272300-
NORTHEAST NEBRASKA

CITY           SKY/WX    TMP DP  RH WIND       PRES   REMARKS
NORFOLK        MOSUNNY   83  47  28 S9        30.03F
ALBION         PTSUNNY   78  44  29 S10       30.03F
BLAIR          MOSUNNY   83  46  27 S7        30.05S
COLUMBUS *     PTSUNNY   82  45  26 S9        30.05F
FREMONT        MOSUNNY   83  47  27 SW8       30.05F
TEKAMAH        SUNNY     85  49  28 S9G18     30.02F
WAYNE          PTSUNNY   80  51  36 S8        30.03F
$$

NEZ050>053-065>068-078-088>093-272300-
SOUTHEAST NEBRASKA

CITY           SKY/WX    TMP DP  RH WIND       PRES   REMARKS
LINCOLN        MOSUNNY   83  46  27 S8        30.05F
OMAHA EPPLEY   CLOUDY    84  50  30 S9        30.04F
BEATRICE       MOSUNNY   81  46  29 S7        30.06F
NEBRASKA CITY  FAIR      80  40  24 S7        30.06F
PLATTSMOUTH    MOSUNNY   82  43  25 S8G17     30.05F
$$

NEZ044-045-051>053-067-272300-
OMAHA AREA

CITY           SKY/WX    TMP DP  RH WIND       PRES   REMARKS
OMAHA EPPLEY   CLOUDY    84  50  30 S9        30.04F
BLAIR          MOSUNNY   83  46  27 S7        30.05S
FREMONT        MOSUNNY   83  47  27 SW8       30.05F
MILLARD        MOSUNNY   83  49  30 S3        30.04F
OFFUTT AFB     MOSUNNY   83  50  32 S8        30.04F
PLATTSMOUTH    MOSUNNY   82  43  25 S8G17     30.05F
WAHOO          FAIR      82  46  28 S9        30.05S
$$


USA.gov is the U.S. government's official web portal to all federal, state and local government web resources and services.